Location: Hurstbourne Priors
(51.2000°N, 1.3667°W)
Time: 23:02:50
(UTC+00:00)

Altair - Pass Details

Date: 13 April 2021
Orbit: 1501 x 1683 km, 47.2° (Epoch: 13 May)

Event Time Altitude Azimuth Distance (km) Brightness Sun altitude
Rises 07:52:31 0° 226° (SW) 4,829 9.8 23.7°
Reaches altitude 10° 07:55:48 10° 220° (SW) 3,820 9.4 24.2°
Maximum altitude 08:04:52 47° 151° (SSE) 1,980 9.1 25.5°
Drops below altitude 10° 08:13:38 10° 82° (E) 3,700 10.7 26.8°
Sets 08:16:45 0° 76° (ENE) 4,667 10.9 27.3°
